Tracking 29892 objects as of 21-Nov-2024
HD Live streaming from Space Station
objects crossing your sky now

STARLINK-32511

Track STARLINK-32511 now!
10-day predictions
STARLINK-32511 is classified as:


NORAD ID: 61727
Int'l Code: 2024-196W
Perigee: 371.0 km
Apogee: 372.2 km
Inclination: 53.2 °
Period: 91.8 minutes
Semi major axis: 6742 km
RCS: Unknown
Launch date: October 30, 2024
Source: United States (US)
Launch site: AIR FORCE EASTERN TEST RANGE (AFETR)
Your satellite tracking list
Your tracking list is empty




NASA's NSSDC Master Catalog

Two Line Element Set (TLE):
1 61727U 24196W   24325.91668981 -.01385366  00000-0 -13816-1 0  9993
2 61727  53.1597 147.6231 0000845  65.3067 176.2598 15.68054984  4588
Source of the keplerian elements: AFSPC